Home > Weather > Oldham > Past weeks

Flag for United Kingdom Weather for the Past 2 Weeks in Oldham, England, United Kingdom

Now
45 °F

Rain. Partly cloudy.


Feels Like: 37 °F
Forecast: N/A
Wind: 17 mph from Southwest

Location: Manchester Airport

Current Time: Feb 7, 2016 at 10:09:42 PM

Latest Report: Feb 7, 2016 at 9:20 PM


Visibility: 4 mi

Pressure: 28.85 "Hg

Humidity: 93%

Dew point: 43 °F

Location of OldhamLocation

Historic Weather in Oldham — Graph

°F

Oldham Temperature Yesterday

Maximum temperature yesterday: 50 °F (at 1:20 PM)
Minimum temperature yesterday: 37 °F (at 1:20 AM)
Average temperature yesterday: 44 °F

High & Low Weather Summary for the Past Weeks

 TemperatureHumidityPressure
High57 °F (Jan 24, 2:50 PM)100% (Jan 31, 11:20 AM)30.27 "Hg (Jan 31, 11:20 AM)
Low34 °F (Jan 28, 5:20 AM)57% (Jan 30, 2:50 PM)28.85 "Hg (Feb 7, 8:20 PM)
Average46 °F82%29.78 "Hg
* Reported Jan 23 8:20 PM — Feb 7 8:50 PM, Oldham, Weather by CustomWeather, © 2016

Note: Actual official high and low records may vary slightly from our data, if they occured in-between our weather recording intervals... More about our weather records

Advertising

Oldham Weather History for the Previous 24 Hours

 ConditionsComfort  
Time TempWeatherWind HumidityBarometerVisibility
8:50 PM
Sun, Feb 7
45 °FLight rain. Passing clouds.18 mph87%28.85 "HgN/A
8:20 PM43 °FRain. Partly cloudy.17 mph87%28.85 "HgN/A
7:50 PM43 °FPartly cloudy.22 mph87%28.88 "HgN/A
7:20 PM41 °FPartly cloudy.26 mph87%28.91 "HgN/A
6:50 PM41 °FPassing clouds.25 mph87%28.94 "HgN/A
6:20 PM41 °FLight rain. Passing clouds.22 mph81%28.97 "HgN/A
5:50 PM43 °FLight rain. Passing clouds.22 mph76%29.00 "HgN/A
5:20 PM41 °FLight rain. Partly cloudy.16 mph81%29.06 "HgN/A
4:50 PM43 °FBroken clouds.20 mph81%29.09 "HgN/A
4:20 PM43 °FLight rain. Broken clouds.21 mph81%29.09 "HgN/A
3:50 PM43 °FScattered clouds.17 mph76%29.12 "HgN/A
3:20 PM43 °FSunny.17 mph76%29.12 "Hg10 mi
2:50 PM43 °FScattered clouds.22 mph76%29.15 "HgN/A
2:20 PM45 °FLight rain. Partly sunny.17 mph76%29.15 "HgN/A
1:50 PM45 °FSunny.18 mph71%29.15 "Hg10 mi
1:20 PM45 °FScattered showers. Passing clouds.22 mph71%29.18 "HgN/A
12:50 PM46 °FBroken clouds.21 mph71%29.18 "HgN/A
12:20 PM46 °FScattered clouds.22 mph71%29.15 "HgN/A
11:50 AM46 °FPassing clouds.23 mph71%29.15 "HgN/A
11:20 AM45 °FPassing clouds.21 mph76%29.15 "HgN/A
10:50 AM43 °FPassing clouds.21 mph81%29.15 "HgN/A
10:20 AM41 °FPassing clouds.18 mph87%29.15 "HgN/A
9:50 AM41 °FPassing clouds.16 mph81%29.12 "HgN/A
9:20 AM39 °FScattered clouds.17 mph87%29.12 "HgN/A
8:50 AM37 °FSunny.15 mph87%29.12 "Hg10 mi
8:20 AM37 °FPassing clouds.13 mph87%29.12 "HgN/A
7:50 AM37 °FScattered showers. Passing clouds.14 mph87%29.09 "HgN/A
7:20 AM37 °FScattered showers. Passing clouds.15 mph87%29.09 "HgN/A
6:50 AM37 °FPassing clouds.12 mph87%29.09 "HgN/A
6:20 AM37 °FPassing clouds.10 mph87%29.09 "HgN/A
5:50 AM37 °FClear.13 mph87%29.09 "Hg10 mi
5:20 AM37 °FPassing clouds.14 mph93%29.06 "HgN/A
4:50 AM39 °FLight rain. Passing clouds.16 mph87%29.09 "HgN/A
4:20 AM39 °FLight rain. Partly cloudy.14 mph87%29.06 "HgN/A
3:50 AM39 °FClear.16 mph87%29.06 "Hg10 mi
3:20 AM41 °FClear.15 mph81%29.06 "Hg10 mi
2:50 AM41 °FClear.15 mph81%29.03 "Hg10 mi
2:20 AM41 °FClear.15 mph81%29.03 "Hg10 mi
1:50 AM41 °FClear.15 mph81%29.03 "Hg10 mi
1:20 AM41 °FPartly cloudy.14 mph87%29.03 "HgN/A
12:50 AM41 °FClear.12 mph87%29.03 "Hg10 mi
12:20 AM43 °FClear.13 mph81%29.03 "Hg10 mi
11:50 PM
Sat, Feb 6
43 °FQuite cool.12 mph81%29.03 "HgN/A
11:20 PM43 °FPassing clouds.12 mph87%29.03 "HgN/A
10:50 PM45 °FPassing clouds.10 mph87%29.00 "HgN/A
10:20 PM45 °FPassing clouds.10 mph87%29.00 "HgN/A
Weather by CustomWeather, © 2016

See weather overviewHow to use our weather pages